CHH7091 ZJHK-ZPPP

Flight info

Callsign CHH7091
Flight time 1h 36m
Altitude 25600
Route AGTEL9ZD AGTEL W71 LH R339 BSE A599 LXI LXI8F
Aircraft A20N/M-SDE2E3FGHIRWXY/LB1

Departure

Time 2026-04-29 19:34
Airport Haikou Meilan International Airport (ZJHK)

Arrival

Time 2026-04-29 21:10
Airport Kunming Changshui International Airport (ZPPP)
Time Latitude Longitude Altitude Speed Heading
2026-04-29 19:16 19.95052 110.45818 71 ft 0 kts 359°
2026-04-29 19:23 19.95051 110.45818 71 ft 1 kts 360°
2026-04-29 19:23 19.95036 110.45818 71 ft 2 kts 359°
2026-04-29 19:23 19.95021 110.45818 71 ft 2 kts 359°
2026-04-29 19:24 19.95005 110.45818 71 ft 2 kts 359°
2026-04-29 19:24 19.94990 110.45818 71 ft 2 kts 359°
2026-04-29 19:24 19.94981 110.45818 71 ft 2 kts 355°
2026-04-29 19:24 19.94968 110.45825 72 ft 2 kts 307°
2026-04-29 19:25 19.94963 110.45837 72 ft 0 kts 274°
2026-04-29 19:25 19.94964 110.45843 71 ft 1 kts 269°
2026-04-29 19:25 19.94964 110.45846 71 ft 0 kts 269°
2026-04-29 19:27 19.94964 110.45843 71 ft 1 kts 269°
2026-04-29 19:28 19.94963 110.45783 72 ft 13 kts 269°
2026-04-29 19:28 19.94963 110.45676 71 ft 11 kts 270°
2026-04-29 19:28 19.94996 110.45592 70 ft 13 kts 314°
2026-04-29 19:28 19.95077 110.45534 67 ft 15 kts 359°
2026-04-29 19:29 19.95122 110.45614 68 ft 14 kts 92°
2026-04-29 19:29 19.95120 110.45766 70 ft 24 kts 89°
2026-04-29 19:29 19.95122 110.45944 70 ft 25 kts 90°
2026-04-29 19:29 19.95125 110.46152 65 ft 29 kts 88°
2026-04-29 19:30 19.95126 110.46365 57 ft 29 kts 94°
2026-04-29 19:30 19.95124 110.46577 53 ft 28 kts 89°
2026-04-29 19:30 19.95125 110.46787 51 ft 27 kts 90°
2026-04-29 19:30 19.95125 110.46986 52 ft 26 kts 89°
2026-04-29 19:31 19.95125 110.47176 52 ft 25 kts 90°
2026-04-29 19:31 19.95126 110.47351 56 ft 22 kts 89°
2026-04-29 19:31 19.95127 110.47527 60 ft 25 kts 89°
2026-04-29 19:31 19.95127 110.47716 66 ft 26 kts 92°
2026-04-29 19:32 19.95127 110.47920 69 ft 28 kts 89°
2026-04-29 19:32 19.95128 110.48106 72 ft 18 kts 90°
2026-04-29 19:32 19.95134 110.48235 73 ft 16 kts 60°
2026-04-29 19:32 19.95233 110.48257 74 ft 15 kts 359°
2026-04-29 19:33 19.95339 110.48256 74 ft 14 kts 356°
2026-04-29 19:33 19.95380 110.48157 74 ft 24 kts 270°
2026-04-29 19:33 19.95382 110.47699 63 ft 97 kts 269°
2026-04-29 19:33 19.95377 110.46755 56 ft 155 kts 269°
2026-04-29 19:34 19.95362 110.45579 510 ft 160 kts 273°
2026-04-29 19:34 19.95360 110.44415 1121 ft 157 kts 272°
2026-04-29 19:34 19.95332 110.43266 1695 ft 160 kts 272°
2026-04-29 19:34 19.95295 110.42078 2135 ft 167 kts 272°
2026-04-29 19:35 19.95253 110.40801 2539 ft 178 kts 271°
2026-04-29 19:35 19.95225 110.39439 2881 ft 195 kts 271°
2026-04-29 19:35 19.95211 110.37941 3299 ft 209 kts 271°
2026-04-29 19:35 19.95200 110.36314 3605 ft 233 kts 271°
2026-04-29 19:36 19.95222 110.34525 3999 ft 252 kts 274°
2026-04-29 19:36 19.95311 110.32684 4814 ft 253 kts 272°
2026-04-29 19:36 19.95336 110.30843 5840 ft 246 kts 271°
2026-04-29 19:36 19.95376 110.29073 6696 ft 244 kts 278°
2026-04-29 19:37 19.96025 110.27418 7427 ft 248 kts 308°
2026-04-29 19:37 19.96870 110.26593 7911 ft 252 kts 326°
2026-04-29 19:37 19.99139 110.25968 8831 ft 265 kts 359°
2026-04-29 19:37 20.00976 110.26103 9512 ft 268 kts
2026-04-29 19:38 20.02866 110.26242 10172 ft 271 kts
2026-04-29 19:38 20.04754 110.26372 10834 ft 274 kts
2026-04-29 19:38 20.06641 110.26496 11482 ft 276 kts
2026-04-29 19:38 20.08582 110.26623 12138 ft 279 kts
2026-04-29 19:39 20.10529 110.26751 12761 ft 281 kts
2026-04-29 19:39 20.12515 110.26878 13190 ft 292 kts
2026-04-29 19:39 20.14593 110.27010 13466 ft 308 kts
2026-04-29 19:39 20.16785 110.27150 13735 ft 324 kts
2026-04-29 19:40 20.19123 110.27302 14008 ft 340 kts
2026-04-29 19:40 20.21513 110.27457 14260 ft 354 kts
2026-04-29 19:40 20.24036 110.27620 14497 ft 368 kts
2026-04-29 19:40 20.26664 110.27790 14730 ft 382 kts
2026-04-29 19:41 20.29342 110.27964 14949 ft 395 kts
2026-04-29 19:41 20.32156 110.28146 15154 ft 407 kts
2026-04-29 19:41 20.35025 110.28333 15346 ft 418 kts
2026-04-29 19:41 20.37960 110.28524 15548 ft 428 kts
2026-04-29 19:42 20.40974 110.28723 15892 ft 433 kts
2026-04-29 19:42 20.42983 110.28855 16182 ft 435 kts
2026-04-29 19:42 20.47040 110.29121 16764 ft 438 kts
2026-04-29 19:42 20.50097 110.29321 17167 ft 441 kts
2026-04-29 19:43 20.53164 110.29520 17568 ft 443 kts
2026-04-29 19:43 20.56251 110.29720 17944 ft 446 kts
2026-04-29 19:43 20.59365 110.29923 18312 ft 448 kts
2026-04-29 19:43 20.62494 110.30125 18686 ft 451 kts
2026-04-29 19:44 20.65602 110.30329 19039 ft 453 kts
2026-04-29 19:44 20.68764 110.30537 19378 ft 456 kts
2026-04-29 19:44 20.71972 110.30746 19710 ft 459 kts
2026-04-29 19:44 20.75141 110.30955 20039 ft 461 kts
2026-04-29 19:45 20.78373 110.31167 20364 ft 464 kts
2026-04-29 19:45 20.81617 110.31381 20688 ft 466 kts
2026-04-29 19:45 20.84867 110.31594 21012 ft 469 kts
2026-04-29 19:45 20.88147 110.31810 21317 ft 471 kts
2026-04-29 19:46 20.91395 110.32024 21610 ft 473 kts
2026-04-29 19:46 20.94724 110.32244 21912 ft 476 kts
2026-04-29 19:46 20.98013 110.32461 22217 ft 477 kts
2026-04-29 19:46 21.01367 110.32668 22504 ft 479 kts
2026-04-29 19:47 21.04687 110.32848 22775 ft 481 kts
2026-04-29 19:47 21.08048 110.32859 23008 ft 480 kts 351°
2026-04-29 19:47 21.11254 110.31963 23244 ft 476 kts 334°
2026-04-29 19:47 21.14090 110.30154 23504 ft 471 kts 319°
2026-04-29 19:48 21.16310 110.27651 23798 ft 466 kts 303°
2026-04-29 19:48 21.17442 110.25657 24040 ft 463 kts 297°
2026-04-29 19:48 21.19466 110.21610 24443 ft 464 kts 296°
2026-04-29 19:48 21.20985 110.18568 24644 ft 466 kts 296°
2026-04-29 19:49 21.22518 110.15501 24869 ft 468 kts 296°
2026-04-29 19:49 21.24042 110.12460 25106 ft 469 kts 296°
2026-04-29 19:49 21.25599 110.09358 25346 ft 469 kts 296°
2026-04-29 19:49 21.27145 110.06279 25556 ft 470 kts 296°
2026-04-29 19:50 21.28686 110.03210 25587 ft 472 kts 296°
2026-04-29 19:50 21.30252 110.00088 25592 ft 472 kts 297°
2026-04-29 19:50 21.31786 109.97028 25593 ft 473 kts 297°
2026-04-29 19:50 21.33354 109.93904 25594 ft 473 kts 297°
2026-04-29 19:51 21.34909 109.90802 25589 ft 473 kts 297°
2026-04-29 19:51 21.36461 109.87706 25592 ft 472 kts 297°
2026-04-29 19:51 21.38021 109.84590 25594 ft 473 kts 297°
2026-04-29 19:51 21.39568 109.81498 25594 ft 473 kts 297°
2026-04-29 19:52 21.41125 109.78386 25594 ft 472 kts 297°
2026-04-29 19:52 21.42656 109.75322 25595 ft 472 kts 296°
2026-04-29 19:52 21.44213 109.72205 25593 ft 472 kts 296°
2026-04-29 19:52 21.45753 109.69119 25593 ft 472 kts 296°
2026-04-29 19:53 21.47299 109.66018 25598 ft 472 kts 296°
2026-04-29 19:53 21.48843 109.62919 25599 ft 472 kts 296°
2026-04-29 19:53 21.50406 109.59780 25600 ft 471 kts 296°
2026-04-29 19:53 21.51934 109.56712 25600 ft 472 kts 296°
2026-04-29 19:54 21.55034 109.50474 25601 ft 472 kts 297°
2026-04-29 19:54 21.56573 109.47419 25602 ft 472 kts 298°
2026-04-29 19:54 21.58293 109.44370 25604 ft 473 kts 301°
2026-04-29 19:55 21.60155 109.41470 25604 ft 473 kts 304°
2026-04-29 19:55 21.62175 109.38691 25604 ft 475 kts 308°
2026-04-29 19:55 21.64277 109.35976 25607 ft 475 kts 308°
2026-04-29 19:55 21.66408 109.33253 25608 ft 475 kts 308°
2026-04-29 19:56 21.68530 109.30543 25607 ft 475 kts 308°
2026-04-29 19:56 21.70659 109.27824 25610 ft 475 kts 308°
2026-04-29 19:56 21.72793 109.25095 25610 ft 475 kts 308°
2026-04-29 19:56 21.74907 109.22388 25609 ft 475 kts 308°
2026-04-29 19:57 21.77028 109.19667 25609 ft 475 kts 308°
2026-04-29 19:57 21.78432 109.17863 25613 ft 475 kts 308°
2026-04-29 19:57 21.81274 109.14215 25613 ft 474 kts 308°
2026-04-29 19:57 21.83402 109.11481 25609 ft 474 kts 308°
2026-04-29 19:58 21.85498 109.08790 25616 ft 474 kts 308°
2026-04-29 19:58 21.87641 109.06054 25612 ft 474 kts 308°
2026-04-29 19:58 21.89764 109.03347 25613 ft 474 kts 308°
2026-04-29 19:58 21.91885 109.00642 25614 ft 475 kts 308°
2026-04-29 19:59 21.94016 108.97920 25619 ft 475 kts 308°
2026-04-29 19:59 21.96148 108.95193 25620 ft 475 kts 308°
2026-04-29 19:59 21.98269 108.92477 25623 ft 475 kts 308°
2026-04-29 19:59 22.00383 108.89769 25623 ft 476 kts 308°
2026-04-29 20:00 22.02528 108.87021 25625 ft 476 kts 308°
2026-04-29 20:00 22.04649 108.84300 25627 ft 476 kts 308°
2026-04-29 20:00 22.06763 108.81589 25627 ft 475 kts 308°
2026-04-29 20:00 22.08885 108.78865 25629 ft 475 kts 308°
2026-04-29 20:01 22.11019 108.76126 25634 ft 475 kts 308°
2026-04-29 20:01 22.13158 108.73385 25634 ft 475 kts 308°
2026-04-29 20:01 22.15262 108.70700 25635 ft 475 kts 308°
2026-04-29 20:01 22.17394 108.67980 25633 ft 474 kts 308°
2026-04-29 20:02 22.19542 108.65237 25635 ft 475 kts 308°
2026-04-29 20:02 22.21655 108.62534 25637 ft 475 kts 308°
2026-04-29 20:02 22.23773 108.59824 25637 ft 475 kts 308°
2026-04-29 20:02 22.25202 108.57994 25637 ft 475 kts 308°
2026-04-29 20:03 22.28050 108.54343 25638 ft 475 kts 308°
2026-04-29 20:03 22.30166 108.51628 25638 ft 475 kts 308°
2026-04-29 20:03 22.32278 108.48917 25641 ft 475 kts 308°
2026-04-29 20:03 22.34404 108.46188 25641 ft 475 kts 308°
2026-04-29 20:04 22.36545 108.43437 25641 ft 475 kts 308°
2026-04-29 20:04 22.38664 108.40713 25644 ft 474 kts 308°
2026-04-29 20:04 22.40777 108.37994 25643 ft 475 kts 308°
2026-04-29 20:04 22.42919 108.35238 25647 ft 475 kts 308°
2026-04-29 20:05 22.45021 108.32532 25649 ft 475 kts 308°
2026-04-29 20:05 22.47164 108.29772 25653 ft 475 kts 308°
2026-04-29 20:05 22.49279 108.27045 25653 ft 475 kts 308°
2026-04-29 20:05 22.51399 108.24309 25656 ft 475 kts 308°
2026-04-29 20:06 22.53503 108.21594 25656 ft 475 kts 308°
2026-04-29 20:06 22.55634 108.18842 25658 ft 475 kts 308°
2026-04-29 20:06 22.57752 108.16115 25662 ft 475 kts 309°
2026-04-29 20:06 22.59978 108.13442 25662 ft 476 kts 311°
2026-04-29 20:07 22.62226 108.10860 25664 ft 476 kts 311°
2026-04-29 20:07 22.64507 108.08257 25667 ft 476 kts 311°
2026-04-29 20:07 22.66796 108.05650 25667 ft 476 kts 311°
2026-04-29 20:07 22.69057 108.03069 25665 ft 476 kts 311°
2026-04-29 20:08 22.71355 108.00445 25660 ft 476 kts 311°
2026-04-29 20:08 22.72868 107.98715 25658 ft 476 kts 311°
2026-04-29 20:08 22.75883 107.95265 25654 ft 476 kts 311°
2026-04-29 20:08 22.78184 107.92628 25655 ft 476 kts 311°
2026-04-29 20:09 22.80445 107.90038 25653 ft 476 kts 311°
2026-04-29 20:09 22.82733 107.87413 25653 ft 477 kts 311°
2026-04-29 20:09 22.84991 107.84822 25653 ft 476 kts 311°
2026-04-29 20:09 22.87279 107.82194 25651 ft 476 kts 311°
2026-04-29 20:10 22.89547 107.79590 25654 ft 476 kts 311°
2026-04-29 20:10 22.91809 107.76987 25655 ft 477 kts 311°
2026-04-29 20:10 22.94100 107.74354 25658 ft 476 kts 311°
2026-04-29 20:10 22.96372 107.71738 25655 ft 477 kts 311°
2026-04-29 20:11 22.98636 107.69130 25656 ft 476 kts 311°
2026-04-29 20:11 23.00915 107.66505 25657 ft 477 kts 311°
2026-04-29 20:11 23.03177 107.63900 25657 ft 477 kts 311°
2026-04-29 20:11 23.05438 107.61298 25660 ft 477 kts 311°
2026-04-29 20:12 23.07717 107.58676 25662 ft 477 kts 311°
2026-04-29 20:12 23.10004 107.56041 25664 ft 477 kts 311°
2026-04-29 20:12 23.12274 107.53426 25668 ft 477 kts 311°
2026-04-29 20:12 23.14540 107.50810 25668 ft 476 kts 311°
2026-04-29 20:13 23.16807 107.48193 25670 ft 476 kts 311°
2026-04-29 20:13 23.18310 107.46457 25671 ft 476 kts 311°
2026-04-29 20:13 23.21341 107.42954 25672 ft 476 kts 311°
2026-04-29 20:13 23.23620 107.40318 25672 ft 477 kts 311°
2026-04-29 20:14 23.25873 107.37712 25675 ft 476 kts 311°
2026-04-29 20:14 23.28161 107.35065 25675 ft 477 kts 311°
2026-04-29 20:14 23.30409 107.32460 25676 ft 477 kts 311°
2026-04-29 20:14 23.32679 107.29829 25675 ft 477 kts 311°
2026-04-29 20:15 23.34969 107.27174 25678 ft 477 kts 311°
2026-04-29 20:15 23.37218 107.24564 25680 ft 477 kts 311°
2026-04-29 20:15 23.39498 107.21918 25679 ft 476 kts 311°
2026-04-29 20:15 23.41757 107.19293 25681 ft 476 kts 311°
2026-04-29 20:16 23.44012 107.16673 25682 ft 476 kts 311°
2026-04-29 20:16 23.46273 107.14043 25683 ft 476 kts 311°
2026-04-29 20:16 23.48542 107.11404 25684 ft 476 kts 311°
2026-04-29 20:16 23.50792 107.08786 25685 ft 476 kts 311°
2026-04-29 20:17 23.53042 107.06166 25685 ft 476 kts 311°
2026-04-29 20:17 23.55322 107.03509 25687 ft 476 kts 311°
2026-04-29 20:17 23.57560 107.00902 25687 ft 476 kts 311°
2026-04-29 20:17 23.59832 106.98251 25687 ft 476 kts 311°
2026-04-29 20:18 23.62075 106.95631 25688 ft 476 kts 311°
2026-04-29 20:18 23.64356 106.92968 25689 ft 476 kts 311°
2026-04-29 20:18 23.66595 106.90351 25689 ft 476 kts 311°
2026-04-29 20:18 23.68851 106.87712 25690 ft 476 kts 311°
2026-04-29 20:19 23.71129 106.85047 25690 ft 476 kts 311°
2026-04-29 20:19 23.73387 106.82405 25690 ft 476 kts 311°
2026-04-29 20:19 23.75620 106.79791 25689 ft 476 kts 311°
2026-04-29 20:19 23.77878 106.77145 25689 ft 476 kts 311°
2026-04-29 20:20 23.80124 106.74511 25689 ft 476 kts 311°
2026-04-29 20:20 23.82391 106.71851 25691 ft 477 kts 311°
2026-04-29 20:20 23.84653 106.69196 25693 ft 477 kts 311°
2026-04-29 20:20 23.86921 106.66532 25696 ft 477 kts 311°
2026-04-29 20:21 23.89144 106.63886 25695 ft 476 kts 309°
2026-04-29 20:21 23.91072 106.60964 25694 ft 474 kts 300°
2026-04-29 20:21 23.92550 106.57735 25697 ft 473 kts 291°
2026-04-29 20:21 23.93535 106.54356 25700 ft 472 kts 283°
2026-04-29 20:22 23.94273 106.50863 25702 ft 472 kts 282°
2026-04-29 20:22 23.94976 106.47358 25701 ft 472 kts 282°
2026-04-29 20:22 23.95674 106.43848 25701 ft 472 kts 282°
2026-04-29 20:22 23.96368 106.40366 25701 ft 472 kts 282°
2026-04-29 20:23 23.97070 106.36864 25701 ft 473 kts 282°
2026-04-29 20:23 23.97770 106.33378 25702 ft 473 kts 282°
2026-04-29 20:23 23.98477 106.29861 25702 ft 473 kts 282°
2026-04-29 20:23 23.99187 106.26328 25702 ft 473 kts 282°
2026-04-29 20:24 23.99887 106.22847 25701 ft 473 kts 281°
2026-04-29 20:24 24.00590 106.19346 25702 ft 473 kts 282°
2026-04-29 20:24 24.01292 106.15844 25701 ft 473 kts 282°
2026-04-29 20:24 24.02000 106.12314 25701 ft 473 kts 282°
2026-04-29 20:25 24.02695 106.08838 25701 ft 474 kts 282°
2026-04-29 20:25 24.03398 106.05324 25703 ft 473 kts 282°
2026-04-29 20:25 24.04101 106.01804 25704 ft 473 kts 282°
2026-04-29 20:25 24.04801 105.98295 25705 ft 473 kts 282°
2026-04-29 20:26 24.05497 105.94804 25708 ft 472 kts 281°
2026-04-29 20:26 24.06199 105.91277 25710 ft 472 kts 281°
2026-04-29 20:26 24.06894 105.87777 25711 ft 473 kts 281°
2026-04-29 20:26 24.07591 105.84264 25716 ft 473 kts 281°
2026-04-29 20:27 24.08277 105.80800 25723 ft 473 kts 281°
2026-04-29 20:27 24.08749 105.78416 25727 ft 473 kts 281°
2026-04-29 20:27 24.09669 105.73764 25734 ft 473 kts 281°
2026-04-29 20:27 24.10391 105.70223 25735 ft 474 kts 283°
2026-04-29 20:28 24.11208 105.66776 25737 ft 474 kts 284°
2026-04-29 20:28 24.12065 105.63260 25738 ft 474 kts 284°
2026-04-29 20:28 24.12915 105.59785 25738 ft 474 kts 284°
2026-04-29 20:28 24.13759 105.56333 25736 ft 474 kts 284°
2026-04-29 20:29 24.14615 105.52831 25737 ft 473 kts 284°
2026-04-29 20:29 24.15455 105.49384 25739 ft 473 kts 284°
2026-04-29 20:29 24.16296 105.45925 25740 ft 473 kts 284°
2026-04-29 20:29 24.17140 105.42450 25742 ft 473 kts 284°
2026-04-29 20:30 24.17985 105.38969 25741 ft 473 kts 284°
2026-04-29 20:30 24.18833 105.35471 25745 ft 473 kts 284°
2026-04-29 20:30 24.19668 105.32020 25748 ft 473 kts 283°
2026-04-29 20:30 24.20506 105.28555 25750 ft 474 kts 283°
2026-04-29 20:31 24.21349 105.25063 25750 ft 474 kts 283°
2026-04-29 20:31 24.22192 105.21570 25751 ft 474 kts 283°
2026-04-29 20:31 24.22992 105.18087 25750 ft 474 kts 283°
2026-04-29 20:31 24.23771 105.14578 25751 ft 473 kts 282°
2026-04-29 20:32 24.24540 105.11080 25751 ft 474 kts 282°
2026-04-29 20:32 24.25307 105.07591 25750 ft 474 kts 282°
2026-04-29 20:32 24.26076 105.04096 25753 ft 474 kts 282°
2026-04-29 20:32 24.26590 105.01763 25756 ft 474 kts 282°
2026-04-29 20:33 24.27617 104.97098 25755 ft 474 kts 282°
2026-04-29 20:33 24.28390 104.93594 25760 ft 474 kts 282°
2026-04-29 20:33 24.29157 104.90109 25766 ft 473 kts 283°
2026-04-29 20:33 24.29932 104.86587 25768 ft 474 kts 283°
2026-04-29 20:34 24.30698 104.83103 25769 ft 474 kts 283°
2026-04-29 20:34 24.31471 104.79589 25773 ft 473 kts 282°
2026-04-29 20:34 24.32235 104.76113 25775 ft 473 kts 282°
2026-04-29 20:34 24.33001 104.72613 25777 ft 473 kts 282°
2026-04-29 20:35 24.33776 104.69078 25780 ft 472 kts 282°
2026-04-29 20:35 24.34532 104.65614 25781 ft 472 kts 282°
2026-04-29 20:35 24.35294 104.62122 25784 ft 472 kts 282°
2026-04-29 20:35 24.36061 104.58604 25783 ft 472 kts 282°
2026-04-29 20:36 24.36812 104.55155 25785 ft 472 kts 282°
2026-04-29 20:36 24.37576 104.51641 25787 ft 472 kts 282°
2026-04-29 20:36 24.38330 104.48173 25789 ft 471 kts 282°
2026-04-29 20:36 24.39093 104.44659 25791 ft 471 kts 282°
2026-04-29 20:37 24.39849 104.41167 25793 ft 471 kts 282°
2026-04-29 20:37 24.40606 104.37676 25795 ft 471 kts 282°
2026-04-29 20:37 24.41362 104.34184 25798 ft 471 kts 282°
2026-04-29 20:37 24.42110 104.30718 25800 ft 471 kts 282°
2026-04-29 20:38 24.42865 104.27219 25803 ft 471 kts 282°
2026-04-29 20:38 24.43617 104.23728 25806 ft 471 kts 282°
2026-04-29 20:38 24.44369 104.20233 25804 ft 471 kts 282°
2026-04-29 20:38 24.45119 104.16746 25807 ft 470 kts 282°
2026-04-29 20:39 24.45862 104.13290 25813 ft 470 kts 282°
2026-04-29 20:39 24.46606 104.09821 25817 ft 469 kts 282°
2026-04-29 20:39 24.47351 104.06337 25819 ft 469 kts 282°
2026-04-29 20:39 24.48093 104.02872 25822 ft 469 kts 282°
2026-04-29 20:40 24.48839 103.99385 25825 ft 468 kts 282°
2026-04-29 20:40 24.49577 103.95923 25826 ft 469 kts 282°
2026-04-29 20:40 24.50320 103.92442 25826 ft 469 kts 282°
2026-04-29 20:40 24.51066 103.88939 25825 ft 469 kts 282°
2026-04-29 20:41 24.51796 103.85505 25826 ft 469 kts 282°
2026-04-29 20:41 24.52537 103.82019 25824 ft 469 kts 282°
2026-04-29 20:41 24.53259 103.78529 25825 ft 469 kts 280°
2026-04-29 20:41 24.53811 103.75034 25684 ft 456 kts 277°
2026-04-29 20:42 24.54159 103.71659 24824 ft 443 kts 274°
2026-04-29 20:42 24.54318 103.68337 23185 ft 444 kts 271°
2026-04-29 20:42 24.54389 103.65223 21458 ft 448 kts 270°
2026-04-29 20:42 24.54421 103.63501 20643 ft 445 kts 270°
2026-04-29 20:43 24.54481 103.60175 19472 ft 430 kts 271°
2026-04-29 20:43 24.54544 103.56924 18924 ft 427 kts 271°
2026-04-29 20:43 24.54608 103.53703 18346 ft 423 kts 271°
2026-04-29 20:43 24.54673 103.50485 17741 ft 418 kts 271°
2026-04-29 20:44 24.54737 103.47327 17066 ft 412 kts 271°
2026-04-29 20:44 24.54801 103.44240 16610 ft 403 kts 271°
2026-04-29 20:44 24.54863 103.41187 16222 ft 396 kts 271°
2026-04-29 20:44 24.54923 103.38225 15873 ft 391 kts 271°
2026-04-29 20:45 24.54983 103.35229 15543 ft 387 kts 271°
2026-04-29 20:45 24.55041 103.32288 15252 ft 384 kts 271°
2026-04-29 20:45 24.55099 103.29376 14982 ft 382 kts 271°
2026-04-29 20:45 24.55298 103.26498 14734 ft 380 kts 278°
2026-04-29 20:46 24.55855 103.23662 14514 ft 379 kts 285°
2026-04-29 20:46 24.56612 103.20915 14319 ft 377 kts 286°
2026-04-29 20:46 24.57392 103.18201 14141 ft 376 kts 287°
2026-04-29 20:46 24.58194 103.15459 13975 ft 372 kts 289°
2026-04-29 20:47 24.59435 103.13086 13742 ft 350 kts 312°
2026-04-29 20:47 24.61385 103.11693 13690 ft 324 kts 340°
2026-04-29 20:47 24.63529 103.11527 13694 ft 303 kts 10°
2026-04-29 20:47 24.65485 103.12386 13721 ft 302 kts 21°
2026-04-29 20:48 24.67436 103.13237 13715 ft 297 kts
2026-04-29 20:48 24.69452 103.13409 13725 ft 291 kts 352°
2026-04-29 20:48 24.71479 103.13192 13729 ft 289 kts 348°
2026-04-29 20:48 24.73464 103.12894 13731 ft 289 kts 348°
2026-04-29 20:49 24.75468 103.12572 13729 ft 289 kts 345°
2026-04-29 20:49 24.77423 103.12035 13731 ft 285 kts 337°
2026-04-29 20:49 24.79243 103.11226 13733 ft 285 kts 332°
2026-04-29 20:49 24.81043 103.10322 13733 ft 284 kts 332°
2026-04-29 20:50 24.82846 103.09405 13732 ft 279 kts 332°
2026-04-29 20:50 24.84570 103.08463 13732 ft 275 kts 325°
2026-04-29 20:50 24.86137 103.07257 13740 ft 272 kts 316°
2026-04-29 20:50 24.87543 103.05891 13748 ft 270 kts 314°
2026-04-29 20:51 24.88893 103.04455 13750 ft 269 kts 306°
2026-04-29 20:51 24.89676 103.02633 13755 ft 264 kts 279°
2026-04-29 20:51 24.89616 103.00621 13766 ft 266 kts 255°
2026-04-29 20:51 24.88758 102.98817 13763 ft 271 kts 230°
2026-04-29 20:52 24.87341 102.97430 13770 ft 274 kts 223°
2026-04-29 20:52 24.85881 102.96102 13762 ft 273 kts 223°
2026-04-29 20:52 24.84422 102.94763 13760 ft 272 kts 223°
2026-04-29 20:52 24.82965 102.93425 13757 ft 272 kts 223°
2026-04-29 20:53 24.81507 102.92085 13753 ft 271 kts 223°
2026-04-29 20:53 24.80062 102.90759 13750 ft 271 kts 223°
2026-04-29 20:53 24.78620 102.89436 13748 ft 271 kts 223°
2026-04-29 20:53 24.77161 102.88096 13746 ft 272 kts 223°
2026-04-29 20:54 24.74265 102.85437 13738 ft 272 kts 223°
2026-04-29 20:54 24.72794 102.84091 13739 ft 272 kts 223°
2026-04-29 20:54 24.71345 102.82762 13737 ft 272 kts 223°
2026-04-29 20:55 24.70063 102.81313 13711 ft 257 kts 245°
2026-04-29 20:55 24.69674 102.79481 13722 ft 247 kts 275°
2026-04-29 20:55 24.70176 102.77691 13730 ft 252 kts 301°
2026-04-29 20:55 24.71308 102.76200 13735 ft 253 kts 309°
2026-04-29 20:56 24.72472 102.74766 13727 ft 253 kts 308°
2026-04-29 20:56 24.73640 102.73298 13722 ft 253 kts 308°
2026-04-29 20:56 24.74799 102.71837 13616 ft 255 kts 308°
2026-04-29 20:56 24.75971 102.70353 13276 ft 255 kts 308°
2026-04-29 20:57 24.77128 102.68904 12951 ft 255 kts 311°
2026-04-29 20:57 24.78603 102.67806 12601 ft 262 kts 338°
2026-04-29 20:57 24.80431 102.67596 12294 ft 268 kts
2026-04-29 20:57 24.82148 102.68366 12024 ft 272 kts 36°
2026-04-29 20:58 24.83465 102.69872 11748 ft 276 kts 49°
2026-04-29 20:58 24.84714 102.71485 11443 ft 274 kts 46°
2026-04-29 20:58 24.86052 102.72957 11314 ft 269 kts 41°
2026-04-29 20:58 24.87457 102.74312 11204 ft 269 kts 38°
2026-04-29 20:59 24.88908 102.75617 11161 ft 270 kts 37°
2026-04-29 20:59 24.90369 102.76901 11158 ft 270 kts 37°
2026-04-29 20:59 24.91856 102.78195 11158 ft 269 kts 37°
2026-04-29 20:59 24.93296 102.79435 11045 ft 260 kts 34°
2026-04-29 21:00 24.94739 102.80596 10868 ft 253 kts 34°
2026-04-29 21:00 24.96156 102.81722 10650 ft 243 kts 34°
2026-04-29 21:00 24.97478 102.82774 10428 ft 227 kts 33°
2026-04-29 21:00 24.98694 102.83814 10081 ft 216 kts 39°
2026-04-29 21:01 24.99763 102.84915 9751 ft 208 kts 43°
2026-04-29 21:01 25.00855 102.85973 9179 ft 213 kts 37°
2026-04-29 21:01 25.01993 102.86976 8841 ft 204 kts 39°
2026-04-29 21:01 25.03069 102.87929 8507 ft 193 kts 37°
2026-04-29 21:02 25.04095 102.88822 8191 ft 182 kts 37°
2026-04-29 21:02 25.05054 102.89620 7965 ft 166 kts 38°
2026-04-29 21:02 25.05930 102.90398 7695 ft 156 kts 41°
2026-04-29 21:02 25.06761 102.91154 7503 ft 155 kts 38°
2026-04-29 21:03 25.07617 102.91878 7327 ft 153 kts 38°
2026-04-29 21:03 25.08439 102.92605 7089 ft 151 kts 38°
2026-04-29 21:03 25.09261 102.93323 6926 ft 147 kts 38°
2026-04-29 21:03 25.10004 102.93970 6914 ft 126 kts 38°
2026-04-29 21:04 25.10785 102.94644 7100 ft 152 kts 38°
2026-04-29 21:04 25.11311 102.95075 7366 ft 158 kts 37°
2026-04-29 21:04 25.12190 102.95825 7908 ft 164 kts 38°
2026-04-29 21:04 25.13068 102.96593 8653 ft 162 kts 38°
2026-04-29 21:05 25.13838 102.97485 9226 ft 164 kts 70°
2026-04-29 21:05 25.13832 102.98696 9487 ft 165 kts 127°
2026-04-29 21:05 25.12919 102.99437 9727 ft 171 kts 172°
2026-04-29 21:05 25.11687 102.99262 9652 ft 189 kts 212°
2026-04-29 21:06 25.10723 102.98267 9655 ft 193 kts 229°
2026-04-29 21:06 25.09773 102.97220 9466 ft 193 kts 220°
2026-04-29 21:06 25.08720 102.96306 9200 ft 191 kts 218°
2026-04-29 21:06 25.07668 102.95459 8995 ft 183 kts 216°
2026-04-29 21:07 25.06653 102.94659 8771 ft 174 kts 217°
2026-04-29 21:07 25.05725 102.93907 8617 ft 155 kts 219°
2026-04-29 21:07 25.05160 102.93438 8546 ft 153 kts 219°
2026-04-29 21:07 25.04030 102.92493 8235 ft 152 kts 218°
2026-04-29 21:08 25.03278 102.91703 8066 ft 152 kts 246°
2026-04-29 21:08 25.03338 102.90601 7849 ft 153 kts 309°
2026-04-29 21:08 25.04261 102.90052 7850 ft 157 kts 346°
2026-04-29 21:08 25.05341 102.89893 7692 ft 156 kts 11°
2026-04-29 21:09 25.06223 102.90538 7606 ft 156 kts 46°
2026-04-29 21:09 25.07015 102.91354 7445 ft 154 kts 39°
2026-04-29 21:09 25.07863 102.92082 7257 ft 153 kts 39°
2026-04-29 21:09 25.08679 102.92813 7034 ft 151 kts 39°
2026-04-29 21:10 25.09504 102.93527 6914 ft 143 kts 39°
2026-04-29 21:10 25.10171 102.94118 6913 ft 100 kts 37°
2026-04-29 21:10 25.10552 102.94450 6913 ft 50 kts 38°
2026-04-29 21:10 25.10692 102.94554 6913 ft 12 kts 17°
2026-04-29 21:11 25.10775 102.94585 6913 ft 12 kts 19°
2026-04-29 21:11 25.10857 102.94612 6913 ft 12 kts
2026-04-29 21:11 25.10929 102.94576 6913 ft 11 kts 306°
2026-04-29 21:11 25.10978 102.94500 6913 ft 11 kts 299°
2026-04-29 21:12 25.10954 102.94423 6913 ft 11 kts 251°
2026-04-29 21:12 25.10977 102.94347 6913 ft 11 kts 306°
2026-04-29 21:12 25.11023 102.94277 6913 ft 11 kts 302°
2026-04-29 21:12 25.11068 102.94203 6913 ft 11 kts 304°
2026-04-29 21:13 25.11048 102.94144 6913 ft 5 kts 218°
2026-04-29 21:13 25.11015 102.94115 6913 ft 5 kts 219°
2026-04-29 21:13 25.11006 102.94107 6913 ft 0 kts 218°